Regional Weather Roundup
Issued by NWS

Home | Current Version | Previous Version | Text Only | Print | Product List | Glossary Off
Versions: 1 2 3 4 5 6 7 8 9 10 11 12 13 14 15 16 17 18 19 20 21 22 23 24 25 26 27 28 29 30 31 32 33 34 35 36 37 38 39 40 41 42 43 44 45 46 47 48 49 50

000
ASUS43 KDTX 041101
RWRMI
MICHIGAN HOURLY REGIONAL WEATHER ROUNDUP
NATIONAL WEATHER SERVICE DETROIT/PONTIAC MI
700 AM EDT TUE AUG 04 2015

NOTE: "FAIR" INDICATES FEW OR NO CLOUDS BELOW 12,000 FEET WITH NO
SIGNIFICANT WEATHER AND/OR OBSTRUCTION TO VISIBILITY.

MIZ047>049-052>055-059>063-066>070-074>076-081>083-041200-
SOUTHEAST LOWER MICHIGAN

CITY           SKY/WX    TMP DP  RH WIND       PRES   REMARKS
ADRIAN         CLEAR     56  53  90 W3        29.93R
ALMA           CLEAR     54  53  99 CALM      29.89S
ANN ARBOR      CLEAR     53  52  96 CALM      29.91R
BAD AXE        CLEAR     52  51  98 CALM      29.89R
CARO           CLEAR     54  53  97 CALM      29.89R
DETROIT CITY   CLEAR     61  53  75 CALM      29.91R
DETROIT        PTCLDY    61  54  77 S5        29.91R
FLINT          CLEAR     57  53  86 CALM      29.90R
GROSSE ILE     CLEAR     61  55  82 W5        29.90R
HILLSDALE      CLEAR     59  53  80 W3        29.93S
HOWELL         MOCLDY    59  54  84 W3        29.91R

CITY           SKY/WX    TMP DP  RH WIND       PRES   REMARKS
JACKSON        CLEAR     55  52  89 W3        29.92R
LAMBERTVILLE   CLEAR     57  53  84 CALM      29.93R
LANSING        CLEAR     59  53  80 CALM      29.91R
LAPEER         FAIR      55  55 100 CALM      29.90R
MASON          CLEAR     56  52  87 CALM      29.91S
MONROE         CLEAR     55  54  94 CALM      29.91R
MT. CLEMENS    CLEAR     61  54  76 W5        29.88R
PONTIAC        MOCLDY    60  54  80 SW3       29.90R
PORT HURON     PTCLDY    55  54  94 CALM      29.90R
TRI CITIES     CLEAR     59  55  87 SW3       29.89R
MIDLAND        FAIR      53  52  97 CALM      29.87S
TROY           CLOUDY    63  53  71 W3        29.92R
SAGINAW HB     CLEAR     55  54  94 SW3       29.88S
$$
MIZ043>046-050>051-056>058-064>065-071>073-077>080-041200-
SOUTHWEST LOWER MICHIGAN

CITY           SKY/WX    TMP DP  RH WIND       PRES   REMARKS
BATTLE CREEK     N/A    N/A N/A N/A MISG      29.93R
BENTON HARBOR  CLEAR     56  55  97 CALM      29.93R
BIG RAPIDS     CLEAR     54  52  95 CALM      29.89R
COLDWATER      PTCLDY    56  53  89 SW3       29.93R
FREMONT        FAIR      53  53 100 CALM      29.89R FOG
HOLLAND        CLEAR     59  56  89 CALM      29.92R
GRAND RAPIDS   PTCLDY    60  57  89 W6        29.91R
IONIA          FAIR      58  54  84 W5        29.90R
KALAMAZOO      CLEAR     60  54  80 CALM      29.93R
LUDINGTON      CLEAR     62  59  90 CALM      29.89R
MARSHALL       CLEAR     56  54  93 CALM      29.92R
MOUNT PLEASANT CLEAR     57  55  93 CALM      29.88R
MUSKEGON       PTCLDY    63  57  81 W5        29.90R
SOUTH HAVEN    PTCLDY    57  56  95 CALM      29.93R
$$
MIZ016>042-041200-
NORTHERN LOWER MICHIGAN

CITY           SKY/WX    TMP DP  RH WIND       PRES   REMARKS
ALPENA         CLOUDY    56  53  90 CALM      29.85R
BEAVER ISLAND  PTCLDY    60  57  88 NW8       29.84R
BELLAIRE       CLOUDY    60  58  90 CALM      29.85R
CADILLAC       CLEAR     50  49  97 CALM      29.87S
CHARLEVOIX     CLOUDY    64  59  85 NW8       29.87R
FRANKFORT      CLOUDY    64  59  85 NW7       29.86R
GAYLORD        CLOUDY    58  57  97 W6        29.86R
GRAYLING       CLOUDY    52  51  98 CALM      29.87R
HARBOR SPRINGS MOCLDY    61  57  88 CALM      29.84R
HOUGHTON LAKE  CLOUDY    59  55  87 CALM      29.87S
MANISTEE       CLEAR     52  48  87 CALM      29.88R
OSCODA         CLOUDY    57  56  96 CALM      29.85S
PELLSTON       CLOUDY    56  55  97 CALM      29.84R
ROGERS CITY    LGT RAIN  57  55  94 SW6       29.84S
TRAVERSE CITY  MOCLDY    60  57  89 CALM      29.83R
$$
MIZ007>008-015-041200-
EASTERN UPPER MICHIGAN

CITY           SKY/WX    TMP DP  RH WIND       PRES   REMARKS
KINROSS        CLOUDY    54  54 100 W3        29.82S
MACKINAC ISLAN CLOUDY    59  59  99 NW6       29.82S
NEWBERRY       CLOUDY    55  54  98 NW6       29.83R
S. S. MARIE    CLOUDY    59  55  87 NW5       29.81R
MUNISING         N/A     62  57  83 N9        29.84R
$$
MIZ004>006-011>014-085-041200-
CENTRAL UPPER MICHIGAN

CITY           SKY/WX    TMP DP  RH WIND       PRES   REMARKS
ESCANABA       CLOUDY    55  54  94 W5        29.85S
MENOMINEE      CLEAR     57  52  82 W3        29.87R
SAWYER-GWINN   CLEAR     55  52  88 CALM      29.86R
$$
MIZ001>003-009>011-084-041200-
WESTERN UPPER MICHIGAN

CITY           SKY/WX    TMP DP  RH WIND       PRES   REMARKS
IRON MOUNTAIN  MOCLDY    57  54  89 NW5       29.86S
HOUGHTON       LGT RAIN  56  54  93 NW8       29.86R
COPPER HARBOR    N/A     58  54  86 N8        29.85R
IRONWOOD       CLEAR     54  52  94 W6        29.88S
$$

ABBREVIATIONS USED IN REMARKS
   TC - TEMPERATURE IN CELSIUS
  WCI - WIND CHILL INDEX
   HX - HEAT INDEX
  VSB - VISIBILITY




USA.gov is the U.S. government's official web portal to all federal, state and local government web resources and services.